Location: Montebello
(37.3256°N, 122.1789°W)
Time: 18:53:53
(UTC-08:00)

ISS - Visible Passes

Search period start: 20 November 2017 00:00
Search period end: 30 November 2017 00:00
Orbit: 402 x 407 km, 51.6° (Epoch: 21 November)

Date Brightness Start Highest point End Pass type
(mag) Time Alt. Az. Time Alt. Az. Time Alt. Az.
20 Nov -1.4 05:40:53 11° SW 05:40:53 11° SW 05:41:13 10° SW visible
24 Nov -1.7 18:46:45 10° SSW 18:48:05 21° S 18:48:05 21° S visible
25 Nov -2.1 17:55:18 10° S 17:57:37 18° SE 17:58:20 17° ESE visible
25 Nov -0.3 19:30:47 10° WSW 19:31:01 11° WSW 19:31:01 11° WSW visible
26 Nov -3.6 18:38:14 10° SW 18:41:10 67° W 18:41:10 67° W visible
27 Nov -3.4 17:46:03 10° SSW 17:49:12 48° SE 17:51:13 20° ENE visible
27 Nov -0.6 19:23:21 10° WNW 19:23:53 13° WNW 19:23:53 13° WNW visible
28 Nov -2.5 18:30:21 10° W 18:33:20 32° NNW 18:33:51 30° NNW visible
29 Nov -3.5 17:37:39 10° WSW 17:40:53 61° NW 17:43:44 13° NE visible
